TimePST,TemperatureF,Dew PointF,Humidity,Sea Level PressureIn,VisibilityMPH,Wind Direction,Wind SpeedMPH,Gust SpeedMPH,PrecipitationIn,Events,Conditions,WindDirDegrees,DateUTC
12:15 AM,30.2,26.6,86,30.36,9.0,Calm,Calm,-,N/A,,Overcast,0,2013-01-20 08:15:00
12:35 AM,30.2,26.6,86,30.36,9.0,Calm,Calm,-,N/A,,Overcast,0,2013-01-20 08:35:00
12:55 AM,30.2,26.6,86,30.37,7.0,Calm,Calm,-,N/A,,Overcast,0,2013-01-20 08:55:00
1:15 AM,30.2,26.6,86,30.37,8.0,East,3.5,-,N/A,,Overcast,80,2013-01-20 09:15:00
1:35 AM,30.2,26.6,86,30.37,9.0,Calm,Calm,-,N/A,,Overcast,0,2013-01-20 09:35:00
1:55 AM,30.2,26.6,86,30.37,10.0,Calm,Calm,-,N/A,,Overcast,0,2013-01-20 09:55:00
2:15 AM,30.2,26.6,86,30.38,10.0,NE,3.5,-,N/A,,Overcast,40,2013-01-20 10:15:00
2:35 AM,30.2,26.6,86,30.38,10.0,ENE,3.5,-,N/A,,Overcast,60,2013-01-20 10:35:00
2:55 AM,30.2,26.6,86,30.37,10.0,ENE,3.5,-,N/A,,Overcast,70,2013-01-20 10:55:00
3:15 AM,30.2,26.6,86,30.37,10.0,Calm,Calm,-,N/A,,Overcast,0,2013-01-20 11:15:00
3:35 AM,30.2,26.6,86,30.37,10.0,ENE,3.5,-,N/A,,Overcast,60,2013-01-20 11:35:00
3:55 AM,28.4,26.6,93,30.37,10.0,Calm,Calm,-,N/A,,Overcast,0,2013-01-20 11:55:00
4:15 AM,28.4,26.6,93,30.37,10.0,NE,3.5,-,N/A,,Overcast,50,2013-01-20 12:15:00
4:35 AM,28.4,26.6,93,30.37,10.0,Calm,Calm,-,N/A,,Overcast,0,2013-01-20 12:35:00
5:15 AM,28.4,26.6,93,30.36,10.0,Calm,Calm,-,N/A,,Overcast,0,2013-01-20 13:15:00
5:35 AM,30.2,26.6,86,30.36,1.0,ESE,3.5,-,N/A,,Overcast,110,2013-01-20 13:35:00
5:55 AM,30.2,26.6,86,30.36,1.5,Calm,Calm,-,N/A,,Overcast,0,2013-01-20 13:55:00
6:15 AM,30.2,26.6,86,30.35,0.8,Calm,Calm,-,N/A,,Overcast,0,2013-01-20 14:15:00
6:35 AM,30.2,26.6,86,30.35,1.8,Calm,Calm,-,N/A,,Overcast,0,2013-01-20 14:35:00
6:55 AM,28.4,26.6,93,30.36,2.0,Calm,Calm,-,N/A,,Overcast,0,2013-01-20 14:55:00
7:15 AM,28.4,26.6,93,30.36,3.0,NNW,4.6,-,N/A,,Overcast,340,2013-01-20 15:15:00
7:35 AM,28.4,26.6,93,30.36,2.0,Calm,Calm,-,N/A,,Overcast,0,2013-01-20 15:35:00
7:55 AM,28.4,26.6,93,30.36,9.0,NW,3.5,-,N/A,,Overcast,320,2013-01-20 15:55:00
8:15 AM,28.4,26.6,93,30.37,10.0,Calm,Calm,-,N/A,,Overcast,0,2013-01-20 16:15:00
8:35 AM,28.4,24.8,86,30.37,9.0,Calm,Calm,-,N/A,,Overcast,0,2013-01-20 16:35:00
8:55 AM,28.4,26.6,93,30.37,2.0,Calm,Calm,-,N/A,,Overcast,0,2013-01-20 16:55:00
9:15 AM,28.4,26.6,93,30.38,3.0,Calm,Calm,-,N/A,,Overcast,0,2013-01-20 17:15:00
9:35 AM,28.4,26.6,93,30.38,5.0,Calm,Calm,-,N/A,,Overcast,0,2013-01-20 17:35:00
9:55 AM,28.4,26.6,93,30.38,2.0,SE,3.5,-,N/A,,Overcast,140,2013-01-20 17:55:00
10:15 AM,28.4,26.6,93,30.38,2.0,WNW,3.5,-,N/A,,Overcast,290,2013-01-20 18:15:00
10:35 AM,28.4,26.6,93,30.38,2.0,Calm,Calm,-,N/A,,Overcast,0,2013-01-20 18:35:00
10:55 AM,30.2,26.6,86,30.38,1.5,Calm,Calm,-,N/A,,Overcast,0,2013-01-20 18:55:00
11:15 AM,30.2,28.4,93,30.37,1.2,SSE,3.5,-,N/A,,Overcast,150,2013-01-20 19:15:00
11:35 AM,30.2,28.4,93,30.36,2.5,Calm,Calm,-,N/A,,Overcast,0,2013-01-20 19:35:00
11:55 AM,30.2,28.4,93,30.35,3.0,South,4.6,-,N/A,,Overcast,180,2013-01-20 19:55:00
12:15 PM,32.0,28.4,87,30.34,4.0,South,4.6,-,N/A,,Overcast,170,2013-01-20 20:15:00
12:35 PM,33.8,28.4,81,30.33,6.0,South,3.5,-,N/A,,Mostly Cloudy,170,2013-01-20 20:35:00
12:55 PM,33.8,28.4,81,30.32,8.0,South,5.8,-,N/A,,Scattered Clouds,180,2013-01-20 20:55:00
1:15 PM,35.6,30.2,81,30.31,9.0,South,4.6,-,N/A,,Clear,190,2013-01-20 21:15:00
1:35 PM,37.4,30.2,75,30.30,10.0,SE,5.8,-,N/A,,Clear,140,2013-01-20 21:35:00
1:55 PM,37.4,30.2,75,30.29,10.0,SSE,6.9,-,N/A,,Clear,160,2013-01-20 21:55:00
2:15 PM,39.2,30.2,70,30.29,10.0,South,4.6,-,N/A,,Clear,180,2013-01-20 22:15:00
2:35 PM,39.2,30.2,70,30.29,10.0,South,5.8,-,N/A,,Clear,170,2013-01-20 22:35:00
2:55 PM,39.2,30.2,70,30.28,10.0,South,5.8,-,N/A,,Clear,170,2013-01-20 22:55:00
3:15 PM,39.2,30.2,70,30.28,10.0,South,3.5,-,N/A,,Clear,170,2013-01-20 23:15:00
3:35 PM,41.0,30.2,65,30.28,10.0,Calm,Calm,-,N/A,,Clear,0,2013-01-20 23:35:00
3:55 PM,39.2,30.2,70,30.28,10.0,West,3.5,-,N/A,,Clear,260,2013-01-20 23:55:00
4:15 PM,37.4,30.2,75,30.28,10.0,NW,5.8,-,N/A,,Clear,320,2013-01-21 00:15:00
4:35 PM,37.4,30.2,75,30.27,10.0,NW,6.9,-,N/A,,Clear,320,2013-01-21 00:35:00
4:55 PM,35.6,28.4,75,30.27,10.0,NW,9.2,-,N/A,,Clear,320,2013-01-21 00:55:00
5:15 PM,33.8,28.4,81,30.27,9.0,NW,6.9,-,N/A,,Clear,320,2013-01-21 01:15:00
5:35 PM,33.8,28.4,81,30.27,8.0,NNW,5.8,-,N/A,,Clear,340,2013-01-21 01:35:00
5:55 PM,32.0,28.4,87,30.26,8.0,NNW,5.8,-,N/A,,Clear,330,2013-01-21 01:55:00
6:15 PM,32.0,28.4,87,30.26,8.0,Calm,Calm,-,N/A,,Clear,0,2013-01-21 02:15:00
6:35 PM,30.2,26.6,86,30.26,8.0,Calm,Calm,-,N/A,,Clear,0,2013-01-21 02:35:00
6:55 PM,30.2,28.4,93,30.27,8.0,North,3.5,-,N/A,,Clear,360,2013-01-21 02:55:00
7:15 PM,30.2,26.6,86,30.28,8.0,Calm,Calm,-,N/A,,Mostly Cloudy,0,2013-01-21 03:15:00
7:35 PM,30.2,26.6,86,30.28,7.0,North,3.5,-,N/A,,Overcast,10,2013-01-21 03:35:00
7:55 PM,30.2,26.6,86,30.28,7.0,Calm,Calm,-,N/A,,Overcast,0,2013-01-21 03:55:00
8:15 PM,30.2,28.4,93,30.28,8.0,Calm,Calm,-,N/A,,Overcast,0,2013-01-21 04:15:00
8:35 PM,30.2,28.4,93,30.28,1.8,Calm,Calm,-,N/A,,Overcast,0,2013-01-21 04:35:00
8:55 PM,30.2,28.4,93,30.28,0.8,Calm,Calm,-,N/A,,Overcast,0,2013-01-21 04:55:00
9:15 PM,30.2,28.4,93,30.28,0.8,NNE,3.5,-,N/A,,Overcast,20,2013-01-21 05:15:00
9:35 PM,30.2,28.4,93,30.29,0.8,NE,3.5,-,N/A,,Overcast,40,2013-01-21 05:35:00
9:55 PM,30.2,28.4,93,30.29,1.8,NE,3.5,-,N/A,,Overcast,50,2013-01-21 05:55:00
11:55 PM,30.2,28.4,93,30.29,4.0,ESE,4.6,-,N/A,,Overcast,120,2013-01-21 07:55:00